Hourly Weather Dagestanskaya

Today, 19 May, Wednesday

Time Temperature Precipitation Wind Pressure Humidity
00:00 +14°C° 0.1 mm 2 mps 729 mmHg 86%
01:00 +14°C° 0.7 mm 2 mps 729 mmHg 89%
02:00 +14°C° 0.7 mm 2 mps 729 mmHg 92%
03:00 +14°C° 0.7 mm 2 mps 729 mmHg 95%
04:00 +14°C° 0.8 mm 1 mps 729 mmHg 96%
05:00 +14°C° 0.8 mm 1 mps 729 mmHg 96%
06:00 +14°C° 0.8 mm 1 mps 729 mmHg 97%
07:00 +14°C° 1.9 mm 2 mps 730 mmHg 96%
08:00 +12°C° 1.9 mm 3 mps 731 mmHg 96%
09:00 +12°C° 1.9 mm 4 mps 732 mmHg 95%
10:00 +14°C° 0.4 mm 5 mps 732 mmHg 80%
11:00 +17°C° 0.4 mm 5 mps 733 mmHg 65%
12:00 +20°C° 0.4 mm 6 mps 733 mmHg 49%
13:00 +20°C° 0 mm 6 mps 733 mmHg 48%
14:00 +20°C° 0 mm 6 mps 733 mmHg 46%
15:00 +20°C° 0 mm 7 mps 734 mmHg 45%
16:00 +20°C° 0 mm 6 mps 734 mmHg 47%
17:00 +19°C° 0 mm 6 mps 734 mmHg 49%
18:00 +17°C° 0 mm 5 mps 734 mmHg 50%
19:00 +16°C° 0 mm 5 mps 734 mmHg 52%
20:00 +15°C° 0 mm 4 mps 734 mmHg 53%
21:00 +13°C° 0 mm 4 mps 734 mmHg 55%
22:00 +13°C° 0 mm 3 mps 735 mmHg 56%
23:00 +12°C° 0 mm 3 mps 735 mmHg 58%

Tomorrow, 20 May, Thursday

Time Temperature Precipitation Wind Pressure Humidity
00:00 +12°C° 0 mm 2 mps 735 mmHg 60%
01:00 +12°C° 0 mm 2 mps 735 mmHg 61%
02:00 +12°C° 0 mm 2 mps 734 mmHg 63%
03:00 +10°C° 0 mm 2 mps 734 mmHg 64%
04:00 +12°C° 0 mm 2 mps 734 mmHg 65%
05:00 +12°C° 0 mm 1 mps 734 mmHg 65%
06:00 +13°C° 0 mm 1 mps 734 mmHg 66%
07:00 +15°C° 0 mm 1 mps 734 mmHg 58%
08:00 +18°C° 0 mm 2 mps 734 mmHg 50%
09:00 +21°C° 0 mm 2 mps 734 mmHg 42%
10:00 +23°C° 0 mm 2 mps 734 mmHg 40%
11:00 +25°C° 0 mm 2 mps 734 mmHg 37%
12:00 +26°C° 0 mm 2 mps 734 mmHg 34%
13:00 +26°C° 0 mm 2 mps 733 mmHg 35%
14:00 +27°C° 0 mm 2 mps 733 mmHg 36%
15:00 +27°C° 0 mm 3 mps 733 mmHg 37%
16:00 +26°C° 0 mm 3 mps 733 mmHg 45%
17:00 +25°C° 0 mm 3 mps 733 mmHg 54%
18:00 +24°C° 0 mm 2 mps 733 mmHg 62%
19:00 +21°C° 0 mm 2 mps 732 mmHg 68%
20:00 +19°C° 0 mm 2 mps 732 mmHg 73%
21:00 +17°C° 0 mm 2 mps 732 mmHg 78%
22:00 +17°C° 0 mm 2 mps 732 mmHg 73%
23:00 +17°C° 0 mm 2 mps 731 mmHg 69%

Day after tomorrow, 21 May, Friday

Time Temperature Precipitation Wind Pressure Humidity
00:00 +16°C° 0 mm 2 mps 731 mmHg 64%
01:00 +17°C° 0 mm 2 mps 731 mmHg 58%
02:00 +17°C° 0 mm 2 mps 731 mmHg 52%
03:00 +17°C° 0 mm 2 mps 730 mmHg 46%
04:00 +17°C° 0 mm 2 mps 730 mmHg 49%
05:00 +18°C° 0 mm 2 mps 730 mmHg 51%
06:00 +18°C° 0 mm 2 mps 730 mmHg 53%
07:00 +21°C° 0 mm 2 mps 730 mmHg 47%
08:00 +26°C° 0 mm 2 mps 730 mmHg 41%
09:00 +29°C° 0 mm 1 mps 730 mmHg 35%
10:00 +31°C° 0 mm 2 mps 730 mmHg 33%
11:00 +32°C° 0 mm 2 mps 729 mmHg 31%
12:00 +35°C° 0 mm 3 mps 729 mmHg 29%
13:00 +35°C° 0 mm 3 mps 729 mmHg 30%
14:00 +35°C° 0 mm 2 mps 729 mmHg 31%
15:00 +36°C° 0 mm 2 mps 729 mmHg 33%
16:00 +34°C° 0 mm 2 mps 728 mmHg 45%
17:00 +31°C° 0 mm 1 mps 728 mmHg 57%
18:00 +30°C° 0 mm 1 mps 728 mmHg 68%
19:00 +28°C° 0 mm 1 mps 728 mmHg 69%
20:00 +25°C° 0 mm 1 mps 728 mmHg 70%
21:00 +23°C° 0 mm 2 mps 728 mmHg 71%
22:00 +23°C° 0 mm 2 mps 728 mmHg 67%
23:00 +21°C° 0 mm 2 mps 728 mmHg 64%

22 May, Saturday

Time Temperature Precipitation Wind Pressure Humidity
00:00 +21°C° 0 mm 2 mps 728 mmHg 60%
01:00 +21°C° 0 mm 2 mps 728 mmHg 57%
02:00 +21°C° 0 mm 2 mps 727 mmHg 55%
03:00 +20°C° 0 mm 2 mps 727 mmHg 52%
04:00 +20°C° 0.1 mm 2 mps 727 mmHg 58%
05:00 +20°C° 0.1 mm 2 mps 727 mmHg 64%
06:00 +19°C° 0.1 mm 2 mps 728 mmHg 70%
07:00 +21°C° 0.1 mm 2 mps 728 mmHg 69%
08:00 +23°C° 0.1 mm 2 mps 729 mmHg 69%
09:00 +24°C° 0.1 mm 2 mps 729 mmHg 69%
10:00 +26°C° 0 mm 2 mps 729 mmHg 61%
11:00 +29°C° 0 mm 2 mps 729 mmHg 53%
12:00 +31°C° 0 mm 1 mps 729 mmHg 46%
13:00 +30°C° 0.1 mm 2 mps 729 mmHg 48%
14:00 +30°C° 0.1 mm 2 mps 729 mmHg 51%
15:00 +30°C° 0.1 mm 2 mps 730 mmHg 54%
16:00 +29°C° 0.2 mm 2 mps 730 mmHg 61%
17:00 +28°C° 0.2 mm 2 mps 730 mmHg 68%
18:00 +27°C° 0.2 mm 2 mps 730 mmHg 76%
19:00 +25°C° 0.3 mm 2 mps 730 mmHg 81%
20:00 +24°C° 0.3 mm 2 mps 730 mmHg 85%
21:00 +21°C° 0.3 mm 2 mps 731 mmHg 90%
22:00 +21°C° 0.1 mm 1 mps 730 mmHg 91%
23:00 +20°C° 0.1 mm 1 mps 730 mmHg 92%

23 May, Sunday

Time Temperature Precipitation Wind Pressure Humidity
00:00 +20°C° 0.1 mm 1 mps 730 mmHg 93%
01:00 +19°C° 0 mm 1 mps 730 mmHg 93%
02:00 +19°C° 0 mm 1 mps 730 mmHg 92%
03:00 +19°C° 0 mm 1 mps 730 mmHg 92%
04:00 +19°C° 0 mm 1 mps 731 mmHg 92%
05:00 +19°C° 0 mm 1 mps 731 mmHg 93%
06:00 +20°C° 0 mm 1 mps 731 mmHg 93%
07:00 +21°C° 0 mm 1 mps 731 mmHg 85%
08:00 +23°C° 0 mm 1 mps 731 mmHg 78%
09:00 +25°C° 0 mm 1 mps 731 mmHg 70%
10:00 +26°C° 0 mm 2 mps 731 mmHg 65%
11:00 +27°C° 0 mm 2 mps 731 mmHg 61%
12:00 +28°C° 0 mm 3 mps 730 mmHg 57%
13:00 +28°C° 0 mm 3 mps 730 mmHg 57%
14:00 +29°C° 0 mm 3 mps 730 mmHg 58%
15:00 +29°C° 0 mm 3 mps 730 mmHg 59%
16:00 +28°C° 0.3 mm 2 mps 730 mmHg 66%
17:00 +27°C° 0.3 mm 1 mps 730 mmHg 74%
18:00 +26°C° 0.3 mm 1 mps 731 mmHg 81%
19:00 +24°C° 1.3 mm 1 mps 731 mmHg 86%
20:00 +22°C° 1.3 mm 1 mps 732 mmHg 90%
21:00 +20°C° 1.3 mm 2 mps 732 mmHg 95%
22:00 +19°C° 0 mm 2 mps 732 mmHg 95%
23:00 +19°C° 0 mm 2 mps 732 mmHg 94%

24 May, Monday

Time Temperature Precipitation Wind Pressure Humidity
00:00 +18°C° 0 mm 2 mps 732 mmHg 94%
01:00 +19°C° 0 mm 1 mps 732 mmHg 94%
02:00 +19°C° 0 mm 1 mps 732 mmHg 94%
03:00 +19°C° 0 mm 1 mps 733 mmHg 94%
04:00 +19°C° 0.3 mm 1 mps 733 mmHg 95%
05:00 +19°C° 0.3 mm 1 mps 733 mmHg 95%
06:00 +17°C° 0.3 mm 0 mps 733 mmHg 96%
07:00 +20°C° 0.3 mm 1 mps 733 mmHg 94%
08:00 +21°C° 0.3 mm 1 mps 733 mmHg 91%
09:00 +22°C° 0.3 mm 1 mps 733 mmHg 89%
10:00 +23°C° 0.3 mm 1 mps 733 mmHg 86%
11:00 +23°C° 0.3 mm 1 mps 733 mmHg 84%
12:00 +24°C° 0.3 mm 2 mps 733 mmHg 82%
13:00 +23°C° 0.5 mm 2 mps 733 mmHg 85%
14:00 +22°C° 0.5 mm 1 mps 733 mmHg 89%
15:00 +22°C° 0.5 mm 1 mps 733 mmHg 92%
16:00 +21°C° 0.9 mm 1 mps 733 mmHg 94%
17:00 +21°C° 0.9 mm 1 mps 733 mmHg 95%
18:00 +20°C° 0.9 mm 1 mps 733 mmHg 96%
19:00 +20°C° 0.6 mm 1 mps 734 mmHg 97%
20:00 +20°C° 0.6 mm 1 mps 734 mmHg 97%
21:00 +19°C° 0.6 mm 1 mps 734 mmHg 98%
22:00 +19°C° 1.1 mm 1 mps 734 mmHg 98%
23:00 +19°C° 1.1 mm 1 mps 734 mmHg 98%
Show more

We Need Your Consent

Meteoprog and our Service Providers may store and access personal data such as cookies, device identifiers or other similar technologies on your device and process such data to personalise content and ads, as well as provide social media features and to analyse the traffic.

  • Store and/or access information on your device

    Cookies, device identifiers or other information can be stored or accessed on your device for the purposes indicated above.

  • Personalised ads and content, ad and content measurement, audience insights, and products development

    Ads and content can be personalised based on a profile. More data can be added to better personalise ads and content. Ad and content performance can be measured. Insights about the audience who saw the ads and content can be derived. Such data can be used to develop or improve user’s experience, systems and software.

By clicking ‘I Agree’ you will allow the use of indicated cookies, device identifiers, web beacons or other similar technologies. Your settings can be changed in the browser on your device.

For certain purposes, legitimate interests may be relied on, rather than consent. You can read more about this in our Privacy and Cookie Policy.